Simultaneous Nadir Overpasses (SNOs) Predictions

Prediction of SNOs between NOAA-19 and NPP Satellite Orbit:

Table of predicted SNOs for the next 14.0 days since TLE Epoch: 8/24/2013
Index Date (NOAA-19) Time (NOAA-19) Lat,Lon (NOAA-19) SZA (NOAA-19 ) Date (NPP) Time (NPP) Lat,Lon (NPP) SZA (NPP ) Distance(km) Time Diff (sec)
1 08/28/2013 07:58:45 80.95, 7.37 75.04 08/28/2013 07:59:42 80.95, 7.36 75.01 0.15 57
2 08/28/2013 08:49:43 -80.94, 174.80 104.98 08/28/2013 08:50:26 -80.94, 174.87 105.01 1.26 43
3 08/28/2013 09:40:48 80.93, -17.63 74.99 08/28/2013 09:41:11 80.93, -17.66 74.98 0.46 23
4 08/28/2013 10:31:46 -80.92, 149.79 105.03 08/28/2013 10:31:55 -80.92, 149.85 105.04 1.01 9
5 08/28/2013 11:22:51 80.91, -42.63 74.94 08/28/2013 11:22:40 80.91, -42.68 74.95 0.78 11
6 08/28/2013
